RH
34 34 30 29 31 31 31 31 31 31 31 29 31 29 20 12 6 5 6 6 6 5 5 5 5 5 5 5 5 5 5 5 5 4 5 5 5 5 5 5 6 6 6 6 6 7 6 6 6 6 7 7 7 7 7 7 6 7 14 15 12 15 14 12 13 11 11 12 14 14 14 14 13 13 13 13 13 14 14 14 14 13 12 12 11 12 13 13
35 35 31 31 33 32 29 30 30 30 31 28 31 30 19 10 6 5 6 6 6 5 5 5 5 6 6 6 6 6 6 5 5 5 5 6 5 5 5 6 6 6 6 7 7 7 6 6 6 6 6 6 7 7 7 7 7 10 18 14 10 15 13 11 11 10 10 10 14 15 14 13 13 13 13 13 13 14 15 14 15 14 13 12 12 13 14 14
34 35 34 32 34 35 29 28 28 28 30 30 32 29 15 9 6 5 6 6 6 5 5 5 5 6 6 6 6 6 6 5 5 5 6 5 5 6 5 6 6 6 6 7 7 7 6 6 6 6 6 7 7 7 7 8 8 9 15 14 11 14 12 10 10 9 10 10 13 15 14 14 13 13 13 13 14 14 15 14 15 15 13 12 13 14 15 15
34 35 36 32 32 35 31 27 25 25 28 29 32 26 12 8 5 5 6 6 6 6 5 5 5 5 5 6 6 6 7 6 6 6 6 5 5 5 5 6 6 6 7 7 7 7 7 6 6 6 6 7 7 7 8 8 9 9 12 14 12 11 11 10 10 9 10 10 12 14 15 15 14 13 13 13 14 15 15 13 14 13 12 12 13 14 16 15
33 34 35 32 29 33 33 27 22 24 24 26 30 21 9 7 5 6 7 6 6 6 6 5 5 5 5 6 6 6 7 7 7 6 6 5 5 5 5 5 6 7 7 8 8 7 7 7 6 6 6 8 8 8 9 9 9 10 11 12 12 11 10 10 10 10 11 11 12 14 15 15 14 14 14 14 15 15 14 13 13 13 13 13 14 15 16 16
32 32 31 30 28 31 34 27 23 25 23 26 28 17 7 6 5 6 6 6 6 6 6 6 5 6 6 6 6 7 8 8 7 7 6 6 5 5 6 5 6 7 7 8 8 7 8 7 6 6 7 9 11 10 10 9 9 11 11 11 11 11 10 11 11 11 11 12 13 14 15 14 15 15 15 15 15 14 13 14 14 13 14 14 15 16 17 17
32 30 29 30 29 31 33 30 27 26 24 29 26 12 6 5 5 6 6 6 5 6 6 6 6 6 6 6 6 6 7 7 7 7 7 6 6 6 6 6 6 6 7 7 7 8 7 7 7 7 9 11 11 10 10 9 9 12 12 11 11 11 11 11 11 12 12 13 13 14 15 15 16 15 16 16 14 14 14 15 15 14 15 15 16 17 18 19
34 31 30 29 30 32 33 33 31 27 27 30 20 8 7 6 6 6 6 5 5 6 6 5 6 6 7 6 5 6 6 7 7 7 7 7 6 6 6 6 6 6 7 8 8 8 7 7 8 8 11 12 10 10 11 10 10 13 13 11 11 11 12 12 12 13 13 14 14 15 15 15 16 16 17 16 14 14 15 15 15 15 16 16 16 18 19 20
40 33 30 28 33 38 37 33 29 28 30 26 14 7 7 5 6 6 5 5 5 6 6 5 6 6 6 6 5 6 7 8 7 7 7 7 7 6 6 6 6 7 7 8 8 8 8 8 8 8 10 11 11 11 11 11 11 11 12 11 12 12 12 13 13 13 14 15 15 16 16 16 17 17 17 15 14 14 15 15 15 16 16 17 18 19 20 21
50 39 32 31 38 43 39 32 27 30 31 22 11 8 7 6 7 7 6 5 5 6 5 5 6 6 6 6 6 7 7 7 8 8 8 7 7 7 7 7 7 8 8 9 8 8 8 8 9 8 9 11 12 12 12 12 12 12 12 12 13 13 14 14 14 15 15 15 16 17 17 17 17 18 16 15 15 15 15 16 16 16 17 18 19 21 22 22
52 44 37 34 37 39 37 33 30 33 29 18 11 8 6 6 7 7 6 5 5 5 5 6 6 6 6 6 6 7 7 8 8 8 8 8 7 7 7 7 8 8 8 8 9 8 8 9 9 9 10 11 12 12 12 12 12 12 12 13 13 14 14 15 15 15 16 16 17 18 17 18 18 18 16 14 15 15 15 16 16 17 17 18 21 23 23 23
50 47 41 35 35 35 34 34 35 35 26 15 10 8 6 6 6 7 6 5 5 5 5 6 6 6 6 6 7 7 7 8 8 8 8 8 8 8 8 8 9 8 9 9 9 9 9 10 9 10 11 11 13 13 12 13 13 13 14 15 16 18 16 15 17 16 17 17 17 18 18 18 19 18 15 14 15 16 16 17 17 17 18 19 22 24 24 24
49 46 41 36 36 36 37 36 36 32 21 12 8 7 6 5 6 6 6 6 6 5 6 6 5 6 6 7 7 7 7 8 8 8 8 8 8 9 9 9 9 9 9 9 9 10 10 11 10 11 11 12 14 13 13 13 12 14 16 17 19 21 21 17 17 18 17 18 18 19 19 18 19 17 15 15 16 16 17 17 18 18 19 20 23 24 24 24
48 45 42 40 39 38 39 36 33 26 16 10 7 6 6 5 7 7 6 6 6 6 6 6 6 6 6 8 8 7 8 8 9 9 9 9 9 10 10 10 10 10 10 10 10 10 10 11 11 11 12 13 14 14 17 18 17 19 17 21 23 20 23 22 19 19 18 20 20 19 20 18 17 17 15 16 16 17 19 18 19 19 20 21 23 25 25 25
51 48 45 42 40 38 38 36 29 21 13 9 7 5 6 6 7 6 6 6 6 6 6 6 7 7 7 7 8 7 8 8 9 9 9 10 10 11 11 11 10 10 11 11 11 11 11 11 11 13 14 14 14 15 22 22 22 25 18 22 27 21 25 25 21 21 19 20 21 20 21 19 18 18 17 16 16 18 20 20 20 21 22 23 24 25 26 26
50 49 44 39 37 37 38 35 25 17 12 9 6 5 6 7 7 6 6 6 6 7 6 7 7 7 7 8 8 8 8 9 9 10 10 10 11 12 12 12 12 11 11 11 12 11 12 12 12 14 14 15 19 20 23 23 25 29 21 20 25 22 24 24 22 23 21 21 22 21 21 19 18 18 17 17 18 19 21 21 21 22 24 25 26 26 26 26
47 43 38 35 35 37 38 32 22 16 13 9 6 5 6 7 7 6 6 7 6 7 7 7 7 7 8 8 8 8 8 9 9 10 10 10 11 12 12 12 13 12 12 12 12 12 12 13 13 14 16 19 25 25 22 24 26 29 26 22 24 23 22 23 23 23 21 21 22 22 22 18 18 18 18 18 19 21 22 22 23 25 26 26 27 27 27 27
50 42 34 30 30 35 38 30 20 17 13 9 6 6 7 8 7 7 7 7 7 7 7 8 8 8 8 8 8 8 9 9 9 10 10 11 12 12 13 13 13 13 13 12 12 12 12 13 15 17 20 20 26 27 22 21 22 22 23 23 24 25 23 24 24 22 22 23 23 24 23 19 19 19 20 20 21 22 23 24 26 27 28 28 28 28 27 26
53 43 32 27 26 33 41 31 20 18 13 8 7 6 8 8 7 7 7 7 7 7 9 8 8 9 9 9 9 9 9 9 9 10 10 11 12 13 13 13 13 13 13 13 13 14 14 14 15 17 20 18 20 25 22 20 21 19 20 22 23 23 23 24 24 23 23 24 24 25 23 20 19 20 20 21 22 23 24 26 28 29 28 28 28 28 27 25
51 42 31 29 26 32 43 34 21 19 13 8 8 8 9 8 7 8 7 7 7 8 9 9 9 9 9 9 9 9 9 9 10 10 10 11 11 12 13 12 13 13 14 17 16 14 17 18 18 20 23 22 20 23 22 21 22 21 21 23 23 23 23 23 23 24 24 24 25 25 24 21 20 21 21 22 23 25 26 28 29 28 28 28 28 27 25 22
44 37 32 32 27 30 40 34 23 18 12 9 8 8 9 9 9 8 8 8 8 9 9 9 9 9 9 9 9 9 9 9 10 10 10 10 11 11 12 12 13 13 16 19 16 16 19 18 19 23 25 23 22 24 23 23 24 23 23 24 24 25 24 22 23 25 25 24 25 25 24 23 21 21 22 23 26 27 28 29 28 26 26 27 26 24 22 21
41 36 32 31 28 29 34 33 25 16 11 9 9 8 10 10 9 9 9 8 9 9 9 10 10 10 9 9 9 9 9 10 10 10 10 10 11 11 11 13 15 15 17 19 17 19 21 17 17 21 23 23 24 27 24 24 25 24 25 24 25 26 25 24 26 27 26 24 24 26 25 23 22 23 25 25 28 28 28 29 27 25 25 25 24 23 22 21
41 38 34 31 29 29 30 28 24 18 11 9 9 9 9 10 9 9 9 9 9 10 9 10 10 10 10 10 10 10 9 10 10 10 11 10 10 11 10 15 20 18 18 20 18 17 17 17 19 20 20 21 23 25 25 24 24 24 24 24 25 26 24 25 27 27 28 26 25 26 26 25 25 25 25 26 29 29 29 30 28 26 25 23 22 23 23 22
38 39 36 32 30 30 29 26 23 19 12 9 9 9 9 10 9 10 10 10 10 10 10 10 10 10 10 11 10 10 9 10 11 10 11 11 10 11 11 14 19 16 17 21 20 16 15 17 20 20 20 20 20 22 23 21 23 26 25 23 26 26 24 25 26 26 27 27 27 27 25 25 27 27 25 27 30 30 30 29 27 25 24 23 23 24 25 25
33 37 37 33 30 30 30 27 22 16 11 10 10 9 9 9 9 9 9 11 11 12 11 10 10 10 10 11 10 10 10 10 11 10 11 11 11 12 13 13 14 13 19 22 19 15 15 18 19 19 21 21 19 21 22 21 22 26 27 25 26 25 25 27 27 27 26 27 28 27 27 27 28 28 27 29 32 30 30 30 27 25 24 24 24 25 27 27
30 32 35 34 33 31 29 26 20 13 11 10 9 10 10 9 10 9 11 15 14 13 12 10 10 11 11 11 11 11 11 12 12 11 11 11 11 12 13 14 14 15 20 20 17 16 18 20 19 19 21 20 20 21 22 24 23 25 26 26 26 26 27 28 29 28 28 28 28 28 30 30 28 29 30 32 34 31 31 31 28 26 26 25 25 26 27 26
28 30 33 34 34 32 28 24 19 14 12 10 10 11 10 10 10 8 11 14 11 11 12 10 11 12 12 12 12 12 12 12 12 11 11 11 12 12 12 16 15 15 19 16 16 19 19 20 19 19 19 19 20 21 22 26 25 25 27 27 28 27 27 29 28 29 31 30 30 30 31 33 31 30 32 34 34 32 32 32 30 28 27 26 27 27 26 24
27 30 32 33 33 32 30 26 22 17 13 12 12 12 13 14 12 10 11 9 8 13 14 12 12 12 12 12 12 12 12 12 12 11 12 11 12 12 12 15 15 17 19 15 16 21 19 18 19 19 19 19 21 22 23 25 23 25 29 29 29 29 29 31 30 32 34 32 32 33 31 35 36 33 35 35 33 33 32 33 34 30 28 29 28 27 26 25
26 31 32 31 32 32 31 28 24 19 16 14 13 14 15 13 10 11 11 8 9 14 15 14 15 14 14 14 12 12 12 12 12 11 11 11 12 12 12 15 16 19 19 15 18 22 19 19 20 18 19 21 23 23 24 24 23 25 29 30 31 31 31 32 32 34 36 34 35 35 34 37 38 35 37 36 33 35 35 35 37 31 29 30 28 27 28 28
27 31 31 31 31 31 31 29 27 24 21 18 15 17 14 11 15 16 11 9 11 14 14 15 15 14 15 15 14 13 12 12 13 11 11 11 11 12 13 15 15 18 21 20 20 22 20 22 23 20 19 22 23 25 26 26 25 26 27 28 29 32 31 33 37 35 34 39 40 37 36 39 41 39 38 37 36 37 35 35 36 32 30 30 28 28 29 29
30 30 30 31 30 29 29 28 28 27 24 19 17 17 12 12 21 18 10 10 13 13 14 14 16 17 18 16 14 15 15 14 13 12 12 12 13 13 13 14 15 18 26 26 19 20 22 21 23 22 22 22 22 24 26 27 28 27 28 28 28 32 30 31 38 35 35 42 41 38 39 42 45 43 41 42 41 40 37 36 36 35 33 30 29 30 31 30
30 29 29 29 25 24 23 22 24 21 18 17 14 14 15 13 15 15 12 11 11 13 15 15 17 20 19 16 14 17 17 14 13 15 16 16 16 16 14 17 16 15 23 24 19 21 23 23 24 22 23 24 22 24 27 28 29 28 31 32 32 36 36 36 40 39 39 41 37 37 41 41 42 41 42 44 42 41 39 37 36 36 35 32 31 32 32 32
28 28 29 25 17 15 14 15 16 14 13 14 11 14 19 17 14 15 15 12 10 14 17 17 19 20 18 14 12 16 16 13 14 17 19 17 16 16 16 20 19 14 17 20 20 22 25 26 25 22 24 25 23 24 27 27 27 27 31 34 35 39 43 47 47 41 40 40 36 39 43 40 39 41 46 47 41 38 37 35 35 36 36 36 35 35 35 33
29 28 27 22 13 10 11 10 10 11 11 11 11 14 15 15 17 16 16 15 14 16 18 19 18 16 15 13 14 17 14 13 16 17 17 16 14 14 16 17 18 20 21 20 20 22 23 22 22 22 24 24 23 25 26 27 28 28 30 31 33 38 42 45 47 43 42 44 41 41 42 41 40 43 49 48 41 37 34 34 36 36 37 38 37 38 37 34
33 30 26 20 13 9 10 9 9 10 9 10 15 18 15 17 19 16 18 19 17 17 17 18 16 12 14 16 18 18 13 13 17 16 16 16 14 15 16 15 18 23 23 21 22 24 22 21 23 24 24 23 24 26 26 27 29 29 29 30 33 38 40 42 46 46 46 50 49 44 41 39 38 43 50 49 43 39 36 35 36 35 37 39 39 39 38 36
38 32 26 21 15 12 10 10 10 9 9 13 16 18 20 21 17 15 18 18 16 15 14 16 16 13 14 16 17 20 16 14 17 15 16 18 16 17 18 18 21 23 20 21 25 24 21 22 25 26 24 24 25 26 26 27 29 29 31 32 34 36 40 43 44 45 50 55 51 44 38 36 38 45 54 53 45 41 40 39 37 37 38 40 40 39 38 37
40 33 26 21 17 14 13 11 11 9 9 13 14 18 23 19 13 16 20 17 16 16 11 14 16 13 12 13 16 20 18 15 17 15 15 18 16 16 20 21 23 24 22 22 23 24 24 23 25 26 23 24 26 25 25 27 29 32 32 34 34 35 41 45 45 50 59 61 54 45 39 38 42 48 54 54 47 43 42 41 39 39 40 40 39 38 38 39
42 35 27 21 18 16 15 13 12 11 11 13 15 19 22 17 13 19 21 18 18 15 11 12 13 12 14 14 16 18 16 17 20 17 16 17 15 16 21 22 24 25 24 23 23 25 26 23 25 28 26 26 25 25 27 28 28 31 32 33 35 39 44 47 49 54 59 61 58 51 43 40 44 51 54 53 47 43 42 42 43 42 41 40 38 37 39 40
40 37 30 25 21 19 17 14 12 12 12 14 18 18 18 18 19 20 21 20 17 14 13 13 12 13 16 18 19 17 16 18 21 18 16 17 16 17 20 21 23 25 25 24 24 25 25 23 26 28 27 26 26 26 31 32 29 29 32 34 39 44 49 50 51 55 58 61 63 60 49 40 42 53 56 51 45 44 44 44 45 43 41 39 38 39 41 42
35 33 30 25 21 18 16 12 12 13 13 18 23 20 18 19 20 20 21 20 17 15 15 15 14 14 16 19 19 17 17 20 21 18 17 19 18 18 22 23 23 25 25 22 24 27 26 25 26 28 27 27 26 28 31 33 33 34 35 39 41 45 49 51 52 55 59 62 67 70 56 37 40 52 53 48 46 47 46 45 44 42 40 39 40 42 43 44
29 27 24 20 16 15 13 11 14 17 18 20 23 21 21 21 20 21 22 21 19 17 17 17 17 16 17 18 17 17 20 23 23 20 19 20 18 18 24 26 24 24 23 21 24 27 26 26 30 30 27 26 26 29 31 32 35 37 38 42 45 48 52 56 57 58 60 59 62 70 58 37 39 50 48 46 48 47 46 45 43 41 40 41 43 45 45 46
29 25 21 17 16 15 14 14 17 20 20 19 19 20 23 23 21 21 21 22 21 19 18 19 20 20 20 18 18 20 21 22 24 22 21 20 18 19 25 27 24 23 23 24 25 27 28 30 31 29 27 27 28 30 32 34 35 36 39 44 49 52 54 56 58 58 59 58 58 68 62 41 39 48 47 47 48 46 47 45 42 41 42 44 45 46 47 48
31 26 21 18 17 16 15 15 17 19 20 21 20 20 22 23 21 20 21 22 21 20 20 21 21 20 20 20 20 21 20 21 23 22 21 21 20 24 28 26 24 24 24 26 27 27 29 30 30 29 29 28 28 31 33 34 34 35 40 47 50 54 56 57 58 57 59 59 58 66 63 44 41 48 46 47 48 47 47 45 44 45 44 45 47 48 49 50
27 24 19 15 15 15 15 16 15 17 22 24 21 20 21 22 21 21 21 21 20 20 21 23 21 19 21 23 21 21 19 19 19 19 20 22 23 27 30 26 24 24 24 26 27 26 28 31 32 31 31 30 31 36 38 36 36 37 44 50 52 55 58 57 57 56 57 57 57 63 58 43 42 47 46 47 48 45 45 46 47 48 47 48 50 50 52 54
19 17 13 11 12 12 14 16 15 17 25 25 20 20 21 20 21 21 21 21 21 21 21 21 21 20 23 23 21 22 21 18 18 19 21 23 25 29 31 28 27 27 26 28 27 25 29 34 32 31 34 35 34 37 40 40 43 44 48 52 52 54 56 56 57 58 57 57 58 59 53 41 39 44 46 48 47 46 47 49 50 52 52 53 53 55 59 61
12 11 11 11 12 11 13 16 15 17 24 23 17 18 20 19 19 20 21 22 21 21 21 21 21 21 22 22 21 23 23 20 20 22 23 24 26 29 32 31 29 28 28 28 27 28 32 34 32 32 34 33 32 36 40 43 44 45 48 51 52 53 54 56 61 61 59 59 57 54 53 45 40 44 49 50 49 50 51 51 52 55 55 55 58 61 63 63
10 11 13 12 12 13 14 15 14 15 17 15 13 16 18 19 19 19 21 23 22 22 22 21 22 21 20 22 22 22 24 24 23 23 24 27 28 30 33 34 32 30 30 28 26 30 33 32 33 36 34 33 35 38 41 42 42 43 46 49 51 54 55 54 57 56 55 59 55 50 53 53 46 47 51 53 53 54 53 54 56 57 57 58 58 58 57 56
10 11 13 13 13 14 13 13 14 14 14 14 15 17 18 20 20 18 19 22 22 22 21 21 22 23 22 22 21 21 24 24 24 24 25 27 30 31 32 33 33 32 30 28 27 31 35 34 36 38 36 35 39 40 40 42 43 44 48 49 49 52 53 52 53 52 53 56 55 49 52 56 53 51 54 56 57 57 57 58 59 58 55 53 52 51 51 51
11 11 12 13 13 14 14 14 14 14 15 17 19 19 19 21 20 19 20 22 22 22 22 20 21 23 26 25 20 22 25 23 22 25 27 27 29 30 28 29 33 33 31 30 31 32 35 39 42 43 37 35 40 41 41 42 45 46 48 48 48 50 53 53 54 54 54 56 55 52 53 55 57 57 58 58 59 61 61 59 56 52 48 48 50 51 50 50
10 11 11 11 12 14 16 16 15 16 18 18 17 18 21 23 21 19 21 20 19 21 23 21 22 26 30 29 23 24 26 23 21 24 26 26 29 32 30 28 33 37 34 35 36 33 34 40 46 45 37 34 40 42 41 43 45 45 47 49 50 52 56 57 57 57 58 58 57 59 61 61 60 61 62 62 63 64 61 55 49 45 45 48 50 50 52 55
9 9 9 10 13 15 17 18 18 19 19 19 18 19 21 24 23 21 21 20 20 22 23 23 24 28 32 31 28 26 25 25 24 25 27 27 28 30 29 27 35 41 38 37 38 34 35 39 43 44 39 35 39 41 39 41 44 45 47 49 50 50 53 57 59 60 59 58 59 65 69 68 65 64 64 63 60 57 54 51 48 46 46 48 50 53 58 61
8 10 11 11 12 15 18 20 19 17 18 19 19 19 21 22 23 22 21 21 23 23 23 23 24 26 28 29 29 27 26 27 28 29 29 29 28 29 29 28 34 39 39 39 39 38 40 42 42 44 42 39 39 39 37 40 45 46 45 45 47 49 50 54 57 58 60 62 66 71 73 70 69 67 63 57 50 46 47 49 48 47 48 51 54 58 60 58